Spokane, WA

10:07 PM PDT on April 30, 2017 (GMT -0700)
Spokane International

Weather History for KGEG - July, 2012

Change the Weather History Date:

Thursday, July 5, 2012

  Actual Average Record
Temperature  
Mean Temperature 63 °F 67 °F  
Max Temperature 78 °F 80 °F 101 °F (2007)
Min Temperature 48 °F 54 °F 42 °F (2002)
Degree Days  
Heating Degree Days 2 2  
Month to date heating degree days 15 10  
Since 1 June heating degree days 190 146  
Since 1 July heating degree days 15 10  
Cooling Degree Days 0 4  
Month to date cooling degree days 6 18  
Year to date cooling degree days 36 81  
Since 1 June cooling degree days 26 67  
Growing Degree Days 13 (Base 50)    
Moisture  
Dew Point 41 °F    
Average Humidity 53    
Maximum Humidity 80    
Minimum Humidity 25    
Precipitation  
Precipitation 0.00 in 0.03 in 1.03 in (1909)
Month to date precipitation T 0.14  
Year to date precipitation 12.99 9.02  
Snow  
Snow 0.00 in 0.00 in 0.00 in (2002)
Month to date snowfall 0.0 0.0  
Since 1 June snowfall 0.0 0.0  
Since 1 July snowfall 0.0 0.0  
Snow Depth 0.00 in    
Sea Level Pressure  
Sea Level Pressure 29.96 in    
Wind  
Wind Speed 3 mph (NNE)    
Max Wind Speed 12 mph    
Max Gust Speed 16 mph    
Visibility 10 miles    
Events      
T = Trace of Precipitation, MM = Missing Value Source: NWS Daily Summary

Daily Weather History Graph

Daily Weather History Graph

Search for Another Location

Airport or City:

Trip Planner

Search our weather history database for the weather conditions in past years. The results will help you decide how hot, cold, wet, or windy it might be!

Date:

Astronomy

Jul. 05, 2012 Rise Set
Actual Time 4:59 AM PDT 8:49 PM PDT
Civil Twilight 4:19 AM PDT 9:29 PM PDT
Nautical Twilight 3:24 AM PDT 10:24 PM PDT
Astronomical Twilight 2:02 AM PDT 11:44 PM PDT
Moon 9:53 PM PDT (7/5) 7:29 AM PDT (7/5)
Length of Visible Light 17h 10m
Length of Day
15h 50m
Waning Gibbous, 95% of the Moon is Illuminated
Jul 5
Waning Gibbous
Jul 10
Last Quarter
Jul 18
New
Jul 26
First Quarter
Aug 1
Full

Hourly Weather History & Observations

Time (PDT) Temp. Dew Point Humidity Pressure Visibility Wind Dir Wind Speed Gust Speed Precip Events Conditions
12:53 AM 55.9 °F 42.1 °F 60% 29.92 in 10.0 mi Calm Calm - N/A   Clear
1:53 AM 52.0 °F 42.1 °F 69% 29.93 in 10.0 mi Calm Calm - N/A   Partly Cloudy
2:53 AM 50.0 °F 42.1 °F 74% 29.93 in 10.0 mi Calm Calm - N/A   Partly Cloudy
3:53 AM 52.0 °F 43.0 °F 71% 29.94 in 10.0 mi Calm Calm - N/A   Scattered Clouds
4:53 AM 50.0 °F 42.1 °F 74% 29.94 in 10.0 mi NE 3.5 mph - N/A   Scattered Clouds
5:53 AM 50.0 °F 44.1 °F 80% 29.95 in 9.0 mi ENE 3.5 mph - N/A   Scattered Clouds
6:53 AM 53.1 °F 44.1 °F 71% 29.96 in 10.0 mi ENE 4.6 mph - N/A   Partly Cloudy
7:53 AM 57.0 °F 44.1 °F 62% 29.96 in 10.0 mi NE 5.8 mph - N/A   Partly Cloudy
8:53 AM 61.0 °F 45.0 °F 56% 29.97 in 10.0 mi NNE 4.6 mph - N/A   Partly Cloudy
9:53 AM 66.0 °F 45.0 °F 47% 29.98 in 10.0 mi Variable 3.5 mph - N/A   Partly Cloudy
10:53 AM 69.1 °F 42.1 °F 38% 29.98 in 10.0 mi Calm Calm - N/A   Partly Cloudy
11:53 AM 72.0 °F 37.0 °F 28% 29.98 in 10.0 mi NE 3.5 mph - N/A   Partly Cloudy
12:53 PM 72.0 °F 39.0 °F 30% 29.98 in 10.0 mi Calm Calm - N/A   Partly Cloudy
1:53 PM 75.0 °F 37.0 °F 25% 29.98 in 10.0 mi NW 4.6 mph - N/A   Partly Cloudy
2:53 PM 75.9 °F 39.9 °F 27% 29.97 in 10.0 mi WSW 9.2 mph - N/A   Partly Cloudy
3:53 PM 77.0 °F 39.0 °F 25% 29.96 in 10.0 mi WSW 6.9 mph - N/A   Scattered Clouds
4:53 PM 77.0 °F 39.0 °F 25% 29.96 in 10.0 mi NNW 9.2 mph - N/A   Scattered Clouds
5:53 PM 77.0 °F 39.0 °F 25% 29.95 in 10.0 mi Calm Calm - N/A   Scattered Clouds
6:53 PM 75.9 °F 39.0 °F 26% 29.95 in 10.0 mi Variable 4.6 mph - N/A   Scattered Clouds
7:53 PM 75.0 °F 39.9 °F 28% 29.95 in 10.0 mi NNE 4.6 mph - N/A   Partly Cloudy
8:53 PM 73.0 °F 41.0 °F 31% 29.96 in 10.0 mi NNE 3.5 mph - N/A   Partly Cloudy
9:53 PM 71.1 °F 42.1 °F 35% 29.96 in 10.0 mi Calm Calm - N/A   Partly Cloudy
10:53 PM 66.0 °F 43.0 °F 43% 29.97 in 10.0 mi Calm Calm - N/A   Clear
11:53 PM 62.1 °F 46.0 °F 56% 29.99 in 10.0 mi SW 3.5 mph - N/A   Clear